RH
78 70 63 60 59 60 62 65 70 76 84 86 85 84 85 93 98 97 92 78 68 59 54 45 35 26 23 25 25 24 23 23 21 20 18 19 21 25 29 34 40 49 63 73 79 81 83 85 89 91 90 77 69 70 85 95 98 98 97 93 89 88 92 80 66 53 46 42 37 33 30 28 28 29 28 52 79 99 100 98 91 77 58 44 40 41 41 39 35 33 31 33 35 37 43 48 56 62 63 58 57 60 65
85 81 74 66 63 62 63 65 71 78 86 88 88 85 83 89 91 88 77 68 64 62 60 51 37 25 19 22 23 22 21 20 19 18 18 19 21 24 28 34 43 55 68 75 78 80 81 82 84 86 86 76 70 70 77 88 93 96 98 97 96 94 91 80 67 55 44 41 38 36 34 32 30 29 31 64 88 100 100 99 93 80 62 42 42 49 52 50 44 37 32 35 35 35 38 49 56 59 58 59 56 52 51
92 92 86 76 69 65 63 64 70 78 86 90 90 87 82 80 77 73 67 66 67 68 68 59 44 28 17 19 21 21 20 18 18 17 18 19 20 22 25 33 45 59 73 77 81 82 82 81 82 84 85 81 77 76 79 86 89 91 95 97 95 92 86 79 66 52 42 39 38 38 39 37 35 36 42 69 88 99 100 99 96 90 80 57 48 50 58 60 55 45 35 37 37 35 35 44 51 55 52 52 49 46 43
94 96 94 85 78 72 67 65 68 76 86 90 91 88 81 74 69 67 67 70 74 75 72 63 51 35 17 18 19 20 19 18 17 16 17 18 18 19 21 30 45 61 75 79 82 82 82 82 83 85 86 86 85 85 87 92 94 94 91 90 88 85 81 72 59 47 39 36 38 42 45 44 42 40 40 59 80 96 100 100 99 98 96 86 72 62 63 68 65 55 41 39 37 35 34 35 43 50 51 49 46 43 38
92 94 95 90 85 80 74 69 69 75 87 92 93 91 84 74 71 71 74 77 79 79 73 64 55 42 21 17 17 18 19 17 16 15 16 16 16 15 17 26 42 59 74 78 78 78 77 77 78 81 85 86 88 89 90 93 95 94 87 82 78 74 66 55 49 46 42 38 43 50 54 51 47 42 36 51 74 93 98 100 100 100 100 99 92 83 76 73 71 67 55 47 40 36 35 30 31 38 48 43 41 40 38
91 92 92 90 87 84 80 74 73 78 90 97 98 95 89 82 79 79 79 81 82 79 71 64 59 49 27 17 16 17 18 17 16 15 15 15 14 14 14 21 35 50 65 68 68 68 70 71 73 75 79 81 84 86 87 90 92 90 83 77 69 58 42 41 49 56 51 49 58 66 63 60 54 46 37 46 68 89 97 98 98 99 99 99 96 90 82 77 75 75 72 60 49 43 41 35 29 30 39 34 33 34 37
93 92 91 89 87 85 83 78 76 80 92 97 99 98 94 91 88 85 83 83 82 78 69 62 60 54 36 19 15 16 17 17 16 15 14 15 14 14 14 16 25 36 49 55 59 63 68 70 70 71 73 77 79 80 82 85 87 84 75 67 52 35 20 33 52 67 61 55 64 76 80 69 58 48 40 41 57 78 96 94 93 95 96 94 91 87 80 76 76 80 85 76 66 56 45 46 41 35 33 33 31 29 28
95 93 91 89 87 85 84 80 77 77 85 95 99 99 98 96 92 88 85 84 81 76 68 60 59 56 44 23 15 15 16 16 16 15 15 15 15 16 17 18 22 29 39 49 56 61 64 67 69 69 63 67 70 73 75 78 79 77 70 58 41 25 18 29 49 65 65 65 69 75 84 74 63 53 48 41 46 61 83 90 92 92 94 93 92 89 84 80 78 79 82 85 82 73 59 47 46 49 51 47 42 35 28
96 95 92 90 87 85 83 82 79 76 76 86 92 95 94 95 93 90 87 85 79 73 67 58 56 54 47 26 17 14 16 16 17 16 16 16 16 17 17 19 21 25 31 42 52 59 62 66 69 71 68 60 64 72 77 76 77 76 69 53 38 28 26 27 39 52 59 71 75 74 76 77 75 71 68 59 54 56 65 78 84 87 91 91 91 90 87 85 83 80 79 81 82 79 69 53 45 45 53 56 51 41 31
95 95 92 89 86 84 81 81 79 76 73 74 80 86 86 90 91 91 88 84 78 72 65 56 53 51 45 29 18 13 16 17 17 18 18 18 18 19 19 19 20 21 26 35 45 53 59 63 67 71 75 65 66 72 80 78 77 74 63 48 38 31 28 32 40 48 50 75 80 77 76 81 83 83 81 78 70 61 55 75 85 87 85 86 84 80 75 76 75 74 71 69 68 68 68 59 51 49 52 55 53 45 34
93 92 91 88 85 82 80 78 77 76 72 70 75 81 86 88 89 89 88 81 77 72 64 57 55 52 44 30 20 14 15 17 18 18 19 20 21 21 22 22 22 23 24 29 36 44 51 55 59 66 75 62 57 62 77 78 75 68 59 49 41 34 30 38 55 67 59 71 76 75 74 79 82 85 90 88 85 74 53 66 81 88 79 78 76 72 63 59 57 58 59 57 56 56 60 60 55 51 58 53 51 46 36
90 89 89 86 82 79 77 76 76 75 72 70 75 84 94 92 89 87 87 80 77 73 65 60 60 59 50 35 23 16 14 16 18 19 19 20 21 22 23 24 24 25 25 26 28 32 37 43 50 59 72 67 53 46 63 72 69 60 54 48 42 36 33 37 61 80 69 77 71 68 86 87 88 91 96 92 90 83 60 54 57 62 64 62 67 71 66 55 49 48 50 50 51 53 54 58 53 47 48 47 45 42 36
88 87 86 83 79 75 74 74 74 74 72 70 74 83 96 94 90 85 82 80 78 74 67 63 64 65 60 45 31 21 15 16 17 18 19 19 20 21 21 22 23 24 25 26 26 28 31 36 44 54 68 81 71 55 49 60 58 51 46 44 40 37 36 35 45 57 61 65 59 60 88 96 99 98 97 93 90 84 67 56 51 50 53 55 58 63 68 63 56 48 46 47 48 50 50 50 46 41 35 35 35 34 31
88 86 85 81 77 73 71 71 72 72 72 73 75 81 91 91 88 83 79 81 81 77 71 66 66 68 68 56 43 30 20 18 17 17 18 18 18 19 19 20 21 21 22 23 25 27 29 33 39 50 65 81 84 75 58 52 46 42 39 40 39 37 37 36 34 37 50 57 56 57 70 87 94 96 96 91 86 80 75 66 59 53 54 56 59 62 65 70 67 60 51 47 46 46 47 45 42 38 33 30 29 28 26
87 85 84 82 78 74 71 70 70 70 73 77 79 82 87 88 85 82 80 83 83 80 74 70 69 70 72 65 54 42 31 24 20 18 18 18 18 18 18 18 18 19 20 21 22 24 26 29 35 44 60 78 84 80 70 55 43 35 35 37 38 37 36 36 34 35 46 59 60 56 56 65 71 76 80 85 84 82 82 80 72 61 54 54 55 56 61 66 69 69 63 54 47 44 44 44 41 37 34 31 29 27 25
87 86 86 85 82 79 76 73 70 69 71 79 84 86 87 85 83 82 82 85 85 81 77 74 72 73 75 70 64 56 46 37 29 24 21 19 18 18 18 18 17 18 18 19 20 21 23 26 32 41 56 72 79 77 69 57 44 36 35 36 36 35 35 35 35 36 40 61 63 58 57 56 53 53 57 71 79 83 85 85 76 62 52 54 56 57 57 60 63 65 66 60 51 43 41 42 40 37 34 31 29 27 25
86 88 89 90 89 87 84 80 75 71 69 76 83 88 88 87 87 87 90 89 86 83 80 78 77 77 78 76 73 68 66 58 50 42 36 32 27 24 20 18 17 17 17 18 19 20 21 25 32 44 62 71 74 72 67 54 43 34 33 33 33 33 32 33 34 35 35 50 57 59 60 60 57 54 54 67 73 76 79 79 69 56 50 52 55 57 58 58 59 60 61 58 52 45 40 40 39 37 35 31 28 26 24
89 90 93 94 94 92 90 87 83 77 72 74 79 85 88 90 93 96 98 94 90 86 83 80 81 83 85 85 82 80 81 77 72 68 64 60 55 47 37 29 22 18 17 18 19 20 20 25 33 46 67 73 73 70 66 54 42 34 32 32 31 30 30 31 32 33 34 40 50 59 64 69 68 64 60 72 75 75 74 69 60 51 51 54 56 57 57 55 54 54 55 54 51 46 41 39 38 37 35 32 28 25 23
96 95 94 94 93 91 90 89 88 85 79 76 76 79 84 90 95 99 100 97 95 91 85 79 83 89 94 93 91 88 89 85 81 80 81 81 79 74 64 50 37 27 21 19 19 19 19 23 31 45 65 70 69 66 64 54 42 34 32 32 31 29 28 28 29 31 33 34 40 50 63 72 76 74 66 70 71 69 67 61 54 51 58 63 63 61 59 57 55 52 51 51 50 47 44 41 40 39 37 33 28 25 23
99 96 92 89 87 84 82 83 85 86 85 82 79 77 79 84 91 97 99 97 95 91 82 82 88 96 99 98 96 94 93 85 80 80 82 85 85 84 79 68 55 42 30 24 21 20 20 21 28 39 55 59 59 57 57 51 42 33 31 31 30 30 28 26 26 27 30 32 34 39 51 67 78 85 84 79 72 65 60 55 51 53 66 74 73 67 62 60 58 54 50 47 46 45 44 43 42 41 39 35 31 27 24
96 92 86 82 80 77 74 74 76 79 83 85 84 81 79 81 86 92 94 93 90 85 78 83 90 97 99 99 98 96 93 83 78 78 81 84 86 87 84 76 67 55 43 33 28 26 26 27 30 36 44 46 45 44 48 46 39 31 28 28 29 30 29 27 25 25 26 29 31 34 38 53 71 85 89 90 88 82 71 63 57 59 71 83 81 72 65 63 62 59 54 48 44 42 42 44 46 47 45 42 37 32 26
92 87 83 81 78 75 72 69 68 69 74 80 84 86 84 83 84 86 87 87 84 81 76 77 81 87 92 95 97 96 93 82 81 84 83 83 85 87 85 79 73 66 56 46 41 39 39 43 45 46 43 39 36 36 40 40 36 32 29 28 29 30 31 28 26 24 23 25 28 31 32 39 58 75 77 84 92 95 89 80 71 67 73 86 84 75 66 65 66 66 64 57 50 45 44 51 55 56 52 47 42 36 30
88 86 85 83 81 78 75 70 66 64 65 70 78 84 88 86 85 84 84 85 84 81 76 72 72 74 79 84 89 91 91 83 87 93 91 88 88 88 85 78 74 70 66 58 54 54 58 62 62 59 50 43 39 38 41 41 40 39 37 36 35 35 34 31 27 24 22 23 25 27 30 32 44 59 70 77 89 99 96 90 80 72 74 84 83 76 66 64 65 67 69 65 58 51 48 52 54 54 51 48 44 39 33
87 89 88 86 84 81 77 73 70 66 64 64 68 76 83 84 83 83 86 90 88 84 78 74 72 72 72 75 80 85 89 86 92 98 98 96 94 92 87 80 76 73 73 70 69 70 75 75 71 65 58 54 52 52 54 52 51 50 48 46 44 42 39 34 29 25 22 21 22 24 27 28 34 44 60 69 85 99 99 95 85 77 77 83 83 78 69 64 63 65 67 68 65 59 54 56 57 58 58 55 51 45 38
92 92 92 91 90 88 84 86 82 76 71 65 63 66 75 82 87 90 94 95 91 85 81 80 80 79 77 78 80 84 89 90 94 99 100 100 99 96 93 87 83 81 80 80 81 82 83 80 76 71 67 65 65 66 65 61 58 56 54 52 50 46 42 36 31 27 23 21 21 22 24 26 29 34 41 55 73 90 100 99 91 82 76 81 87 89 84 77 71 68 68 69 69 67 65 66 67 69 69 67 61 54 45
95 93 91 93 94 94 92 97 94 87 76 70 64 63 72 86 94 99 99 97 94 90 85 87 88 86 84 85 87 90 93 95 97 99 100 100 100 99 98 95 92 90 87 87 88 89 87 84 81 78 75 74 74 73 71 66 62 58 54 51 48 45 41 36 32 28 24 21 20 20 21 24 26 29 31 42 57 74 92 98 96 87 74 81 90 97 97 93 88 82 76 74 72 70 69 69 68 67 68 69 67 61 53
95 93 91 93 95 97 95 98 99 95 84 76 70 68 77 91 98 100 100 98 97 95 93 95 96 94 91 92 93 93 93 93 95 97 99 100 100 100 99 98 97 95 93 92 92 92 90 87 85 84 84 84 84 82 80 75 69 63 55 47 41 38 35 33 30 26 24 21 19 19 19 21 23 26 28 31 39 51 67 84 89 86 78 80 87 95 100 99 96 93 88 83 77 73 69 67 64 62 60 63 64 63 59
94 93 93 96 98 98 95 97 98 99 97 84 78 79 84 95 99 100 100 98 98 97 97 99 99 99 97 96 94 92 87 88 91 94 98 99 100 100 100 100 99 98 97 95 94 93 91 90 91 92 93 93 93 92 90 85 79 73 64 52 42 34 29 27 25 23 21 19 18 18 18 18 20 22 25 27 31 37 46 60 73 81 78 75 79 88 98 99 98 97 96 94 86 77 68 65 61 58 54 54 57 59 60
93 93 96 98 100 99 98 97 98 99 100 88 85 87 91 97 100 100 100 99 97 96 96 97 98 99 100 100 99 96 89 87 89 93 97 99 100 100 99 100 100 100 99 98 97 97 96 95 95 97 98 98 97 96 96 92 87 82 77 68 57 46 36 30 26 24 23 23 23 22 21 20 20 20 23 25 28 31 36 41 51 61 65 64 69 77 86 92 96 98 99 96 88 77 66 63 62 60 55 52 53 55 57
94 95 98 99 100 100 100 99 99 99 97 90 86 87 95 99 100 100 100 99 97 95 93 95 96 96 96 97 98 98 95 92 93 95 98 100 100 99 98 99 100 100 100 100 100 100 100 99 99 99 100 99 99 98 97 94 89 86 84 82 77 70 60 52 47 44 44 45 43 41 36 31 26 23 22 24 26 29 32 36 39 43 48 51 58 66 73 78 83 86 87 81 74 67 63 62 61 60 57 55 55 56 56
97 98 99 100 100 100 100 99 99 99 98 93 86 82 89 96 99 100 100 100 100 99 99 98 97 95 92 90 91 93 93 95 97 99 100 100 100 100 98 99 99 100 100 100 100 100 100 100 100 100 100 100 100 99 98 95 90 85 83 85 85 85 84 80 78 77 77 76 73 68 61 52 43 34 27 25 26 27 31 34 37 38 39 43 50 57 63 66 68 68 68 65 63 61 59 60 60 59 58 59 61 62 62
100 100 100 100 100 100 99 97 96 96 100 99 93 86 80 85 91 96 99 99 100 100 99 99 97 93 86 81 80 81 83 85 87 90 95 98 99 100 99 99 99 99 98 98 98 97 98 98 98 98 98 99 100 100 99 97 92 86 82 82 83 85 88 89 91 91 90 89 88 86 83 75 65 53 41 32 28 27 29 33 36 39 40 43 46 50 55 59 61 63 66 66 65 64 63 65 65 65 64 67 71 74 74
100 100 100 100 100 99 96 92 88 89 99 100 99 96 91 84 82 83 87 94 98 99 99 96 94 92 90 85 82 80 78 77 77 78 81 87 94 99 100 99 98 97 96 96 95 95 94 95 95 94 95 97 99 99 99 98 95 91 85 81 81 82 84 87 88 88 86 85 85 86 89 89 84 75 61 48 37 31 28 31 35 39 43 48 51 51 53 57 62 67 72 76 78 77 75 75 74 72 72 77 85 90 88
99 100 100 100 100 99 96 94 89 87 92 93 94 95 96 93 88 83 80 84 89 95 98 97 96 96 98 97 93 87 80 76 72 71 72 78 86 94 99 100 98 97 96 95 94 94 94 95 95 95 95 96 98 99 99 99 97 95 89 86 84 83 83 84 84 84 83 81 81 82 85 89 92 90 83 68 54 41 31 30 32 36 40 48 59 65 62 67 70 73 75 77 78 79 79 78 77 78 79 84 87 89 89
89 96 99 100 100 99 97 93 89 85 83 80 79 82 88 93 93 91 86 84 85 87 88 87 88 91 96 97 95 88 76 71 68 67 69 75 83 90 97 99 99 99 97 96 95 95 96 97 97 97 98 98 98 99 100 99 98 96 93 91 89 87 84 83 82 82 81 80 80 79 78 81 85 88 89 83 72 58 43 35 31 32 35 40 46 54 61 65 68 71 72 75 77 78 79 76 77 79 84 85 85 84 84
58 74 90 95 98 98 95 85 78 72 69 65 63 66 75 84 90 93 93 91 89 88 88 87 87 88 92 92 90 85 79 75 72 70 71 76 82 88 93 97 99 99 98 97 97 96 97 97 97 97 97 97 98 99 99 99 99 97 97 96 95 92 88 85 82 80 78 78 78 77 74 73 74 77 81 82 79 73 63 49 38 32 31 35 38 43 47 57 65 71 74 77 81 83 83 79 77 78 82 81 80 79 80
25 35 51 68 81 88 89 77 66 57 55 54 53 55 61 69 78 85 90 92 92 92 92 93 92 92 91 91 90 87 85 81 78 76 73 73 77 82 89 94 97 98 99 99 98 97 97 94 92 90 89 91 93 94 95 96 97 98 100 99 99 97 93 89 84 80 77 76 76 76 73 70 68 69 71 73 75 76 76 68 56 44 35 33 34 37 41 47 54 62 71 77 82 85 85 81 78 77 78 77 76 75 75
10 13 17 28 41 53 63 63 57 51 49 53 53 51 51 56 62 68 75 81 85 89 93 95 96 95 94 92 91 89 88 86 84 82 78 76 77 80 85 92 96 98 99 99 99 98 97 90 83 79 79 82 85 88 90 90 91 93 98 99 100 99 97 94 88 82 77 76 75 75 74 71 68 67 67 67 69 71 75 76 72 64 51 41 35 34 36 40 45 50 56 68 78 84 82 78 76 76 76 74 72 69 67
8 8 8 10 15 21 30 39 44 47 50 60 59 51 46 50 53 56 58 64 71 79 86 89 91 93 94 94 92 90 88 87 86 86 84 83 84 85 88 93 96 97 97 97 97 96 94 85 79 77 80 84 88 90 91 89 88 88 91 95 97 98 99 96 91 85 79 76 75 75 76 73 70 67 65 65 66 67 69 73 76 76 71 59 48 39 35 36 39 43 48 53 63 71 71 70 73 76 77 75 70 65 60
8 8 9 10 9 10 12 19 28 37 47 63 65 58 50 54 58 60 56 59 65 73 78 79 81 85 91 93 94 92 89 87 87 88 87 87 88 89 90 93 94 94 93 92 92 91 89 85 83 83 87 89 92 94 95 93 89 86 85 88 90 92 94 94 92 88 83 80 78 77 78 77 73 69 65 65 65 65 66 69 74 78 80 76 67 56 46 40 38 39 42 46 50 53 57 60 66 72 76 78 75 69 63
8 8 9 11 10 9 9 10 15 23 35 53 65 69 65 73 77 77 71 71 76 80 82 78 77 80 87 92 94 94 91 89 89 89 90 89 89 89 89 89 89 88 86 84 84 85 87 89 90 92 93 94 94 94 94 94 92 88 86 85 85 85 85 85 85 84 83 82 82 82 82 80 76 71 67 65 65 65 65 67 70 75 79 82 81 76 67 56 48 42 40 42 45 48 51 53 57 62 68 73 75 74 69
9 9 10 12 12 11 9 9 10 13 18 34 53 70 81 92 95 93 91 90 92 94 94 88 84 83 86 90 93 93 91 90 90 90 90 90 90 89 88 87 85 83 80 79 80 84 90 94 96 97 98 96 92 88 88 91 92 91 89 86 85 84 82 80 79 79 79 80 82 83 83 81 78 74 69 67 65 65 65 66 68 72 76 80 84 85 84 76 67 57 49 45 44 45 48 51 53 56 61 64 67 70 69
9 9 10 13 13 12 11 10 11 11 12 16 32 55 84 95 99 99 99 99 100 100 100 98 95 92 89 90 90 90 89 88 88 89 90 91 90 90 89 88 86 84 83 84 87 92 96 98 98 97 95 90 85 81 81 85 88 90 91 90 88 87 85 83 82 81 81 81 82 82 83 81 79 76 72 69 67 66 66 66 67 69 73 76 81 84 88 88 84 78 68 59 52 48 47 49 51 54 57 60 64 68 69
11 11 12 15 14 12 11 12 13 13 13 12 18 35 63 82 92 96 98 99 99 99 99 100 99 98 95 93 92 91 90 90 90 91 92 92 92 92 93 92 90 89 89 92 95 97 98 96 93 90 85 80 77 76 76 78 81 84 87 88 88 88 87 86 85 85 84 84 83 83 83 81 79 76 74 71 70 69 68 67 67 68 70 73 77 81 85 88 91 90 87 79 70 61 54 52 52 53 56 59 62 65 68
13 14 15 17 15 12 11 11 13 15 16 15 17 25 38 51 63 75 85 91 93 94 95 96 98 99 99 97 95 93 92 91 90 91 91 92 93 94 95 95 94 93 93 93 94 94 93 89 86 83 80 78 77 76 75 75 75 77 79 81 82 83 83 83 83 84 84 84 84 84 83 82 80 77 75 73 72 72 71 70 68 67 67 69 73 76 80 85 89 92 94 92 86 78 68 60 56 55 56 58 60 63 65
15 17 18 17 15 13 12 13 14 15 17 18 20 24 28 32 36 43 53 63 71 76 80 82 85 89 92 93 93 91 88 87 85 84 84 86 89 91 93 94 94 94 94 93 92 91 89 87 86 84 83 81 80 78 77 75 74 74 74 75 76 77 77 78 79 80 82 83 84 84 85 84 82 80 77 76 75 75 75 74 72 69 67 68 69 72 76 82 87 91 94 95 94 90 83 72 64 59 58 59 61 63 65
17 18 20 18 17 17 18 17 17 16 17 19 22 25 28 30 32 33 36 40 46 52 58 62 66 70 75 79 81 82 81 80 79 77 77 78 79 80 81 81 83 85 86 88 89 89 88 85 83 81 79 77 76 74 73 72 72 73 73 73 74 75 75 76 77 80 82 83 85 86 87 86 86 85 84 82 81 80 79 78 76 74 71 69 69 71 74 80 85 90 94 96 97 95 91 82 73 65 61 61 63 65 67
21 23 26 26 24 23 25 23 21 18 16 18 22 25 28 31 33 35 37 37 38 41 47 55 60 60 60 63 66 68 70 71 71 71 70 69 68 66 65 64 65 66 67 69 72 74 74 71 68 65 64 63 62 61 61 64 66 68 70 71 73 75 76 79 82 85 88 90 91 91 92 92 90 89 87 87 86 85 85 84 82 80 77 75 73 73 76 81 86 91 93 95 96 95 92 85 78 71 67 67 68 71 75
28 32 38 41 39 34 32 30 26 21 18 19 25 32 41 45 44 43 41 36 33 33 38 47 53 56 56 55 55 55 57 57 58 59 61 62 61 58 56 54 53 52 52 54 55 56 56 56 55 53 51 49 48 47 48 52 57 62 66 71 76 80 84 87 91 93 96 97 98 98 97 96 94 92 90 90 90 91 91 90 89 87 84 82 80 79 78 81 85 90 93 94 94 93 91 86 82 79 78 80 83 86 88
29 35 41 51 54 51 49 41 35 29 23 24 29 40 58 67 65 56 45 37 32 31 36 44 49 51 54 54 52 50 48 48 51 56 59 59 59 57 55 55 56 56 56 56 56 56 56 55 54 51 48 43 39 38 40 47 54 61 69 78 85 92 96 97 98 99 99 99 99 99 98 97 96 96 95 96 96 96 96 95 93 92 90 88 87 86 84 84 86 90 94 96 96 96 94 90 87 85 85 89 91 92 93
27 31 35 48 56 60 60 57 51 44 35 30 32 42 58 70 70 64 55 49 44 41 42 48 51 50 48 46 46 48 54 64 68 67 66 63 62 63 64 65 67 68 68 64 61 58 57 56 53 48 42 38 38 40 45 53 61 67 73 80 87 92 97 96 95 95 94 94 93 91 88 87 87 90 93 94 95 95 95 95 94 93 92 89 87 86 87 88 90 93 96 98 98 97 95 91 87 85 85 88 90 91 93
26 29 30 38 45 52 58 63 61 56 48 38 38 46 60 66 67 63 56 48 41 36 34 37 46 56 60 56 50 49 61 82 90 88 77 74 73 75 76 73 71 68 62 57 54 53 55 54 50 44 39 41 45 51 56 61 65 68 71 75 78 80 80 81 81 81 80 78 76 75 74 74 76 79 82 84 86 87 89 90 90 89 87 86 86 87 91 94 96 97 96 93 91 91 91 90 88 85 85 87 89 90 92
26 29 30 31 35 41 50 58 59 55 52 44 42 46 60 66 66 62 58 57 53 48 43 42 49 62 77 74 66 59 58 77 90 93 85 80 78 78 76 72 68 62 56 51 49 49 52 50 45 40 38 45 53 60 66 69 70 71 71 71 72 73 74 75 76 77 77 77 75 71 67 65 67 70 75 77 79 82 85 85 84 84 83 85 89 93 96 97 96 95 91 87 86 86 87 88 88 88 87 88 89 90 91
28 31 33 33 34 36 41 49 52 51 47 44 41 43 56 68 72 72 76 84 86 83 78 74 68 65 72 78 78 74 69 70 71 72 70 69 68 67 67 63 59 56 56 55 54 51 46 43 42 42 41 50 60 68 73 74 74 75 75 77 80 82 83 84 85 85 84 80 75 70 65 65 66 69 72 74 76 78 80 80 81 83 85 90 94 97 97 97 95 93 90 88 88 88 88 89 90 90 92 93 93 94 94
30 33 36 37 38 39 39 43 47 48 47 48 45 44 51 63 70 75 81 85 86 83 78 79 78 73 67 72 76 78 80 79 80 79 75 73 67 60 56 56 58 59 60 56 54 51 46 48 47 47 50 65 75 81 82 82 84 86 88 91 92 91 90 92 93 94 92 87 82 78 76 77 80 82 84 85 85 85 84 85 87 90 94 95 96 97 97 98 97 96 95 95 95 95 93 92 91 92 94 95 96 96 96
31 33 36 38 41 42 41 40 42 45 48 49 48 47 49 57 63 68 74 77 76 73 71 73 73 72 69 65 66 72 78 79 82 84 86 87 84 76 65 65 67 67 62 58 52 50 53 56 54 57 72 85 85 80 78 84 91 95 94 93 95 97 98 98 98 97 93 89 87 86 87 89 92 94 96 96 96 96 96 96 96 96 96 96 97 97 98 98 98 98 98 98 98 97 96 94 93 93 93 93 94 95 96
32 33 34 37 39 41 42 42 42 44 46 47 47 49 51 56 59 62 66 67 67 66 65 67 67 67 66 62 61 63 72 77 81 84 88 92 94 92 84 74 71 71 69 66 61 59 64 65 60 59 71 74 70 66 69 75 78 78 73 75 83 90 91 84 82 83 84 85 86 89 94 96 98 98 99 99 99 98 97 97 98 98 98 98 98 99 99 99 99 99 99 99 99 99 98 96 95 94 93 92 92 92 93
33 33 34 35 37 39 41 42 43 43 44 43 44 47 52 58 60 61 62 61 61 61 62 64 66 66 64 61 57 56 61 73 79 82 86 91 95 95 91 80 72 67 66 69 70 70 71 72 69 65 62 58 56 55 56 55 55 55 55 59 60 60 56 58 60 64 66 73 79 85 91 90 90 92 97 98 98 98 98 98 98 98 98 99 99 99 100 100 100 100 100 100 100 100 100 99 98 96 94 91 87 86 86
33 33 33 34 35 36 37 39 40 40 39 38 39 42 47 54 58 60 61 59 58 58 60 64 66 66 64 62 59 56 57 67 75 81 84 86 86 82 74 67 63 60 60 62 66 70 73 75 74 71 67 62 57 54 54 55 57 58 58 58 58 57 56 55 55 56 58 65 73 78 79 75 75 80 93 96 97 97 97 99 99 99 99 99 99 100 100 100 100 100 100 100 100 100 99 99 99 97 95 91 86 84 84
34 33 32 32 32 32 33 34 35 35 34 33 34 35 38 44 49 53 54 53 53 54 56 60 63 65 64 61 59 59 61 64 71 78 84 84 85 85 84 82 76 70 64 61 61 63 66 67 68 69 69 69 67 63 58 57 58 59 60 59 59 58 56 52 50 49 48 56 62 67 68 66 66 70 84 91 95 96 98 99 99 99 99 100 100 100 100 100 100 100 100 100 100 100 99 99 99 98 97 94 91 90 89
36 34 32 31 30 29 29 30 30 30 30 30 30 31 32 35 39 43 43 43 43 45 48 51 55 58 59 57 55 56 61 64 70 77 85 86 90 93 95 94 93 90 85 78 74 71 68 66 68 71 75 78 78 76 73 67 63 61 61 61 63 64 61 58 58 59 60 61 63 65 67 66 67 69 77 85 89 93 97 98 98 99 99 99 100 100 100 99 99 99 99 99 99 99 99 99 99 98 98 97 96 95 95
Wind_Speed
13 12 11 11 12 12 12 13 13 13 12 12 11 12 13 14 14 13 12 10 8 7 7 6 6 7 8 9 9 10 10 9 9 9 9 9 10 11 12 14 15 17 18 18 19 18 17 15 13 9 4 6 8 8 5 7 9 9 7 5 4 4 4 4 7 9 10 8 7 6 5 4 2 1 3 6 8 8 8 6 5 5 7 9 10 11 11 10 8 6 5 4 4 4 4 4 4 4 6 6 6 7 7
13 12 12 12 12 12 12 12 13 12 12 12 11 12 13 15 15 14 12 10 9 8 7 7 7 7 8 9 10 10 10 10 10 9 10 10 11 12 13 15 16 17 18 18 18 18 17 16 15 10 3 6 8 8 7 5 6 6 6 6 5 4 3 5 8 10 10 8 7 6 5 4 2 1 4 8 11 11 10 8 5 4 5 8 9 9 9 9 8 7 5 5 4 5 4 5 5 5 5 5 4 4 5
13 13 13 12 12 11 12 12 12 12 12 12 11 11 12 14 14 13 12 10 9 8 7 7 7 7 8 9 10 10 10 10 10 10 10 11 12 13 14 15 16 17 18 18 18 18 18 17 16 11 4 5 8 9 9 8 6 5 4 4 4 4 5 7 9 10 10 7 6 6 5 4 2 2 5 9 12 12 11 8 5 3 4 5 6 6 6 7 7 7 6 5 5 4 4 5 5 5 5 5 4 3 3
13 13 13 12 11 11 11 11 12 12 12 12 12 11 12 13 13 12 11 10 8 7 7 6 6 6 7 9 10 10 11 10 10 10 11 11 12 13 14 15 16 17 17 18 18 18 17 17 15 11 7 6 7 9 10 8 6 5 4 4 5 5 7 9 10 10 8 5 5 5 5 4 3 3 6 10 12 12 11 8 6 4 3 4 4 4 4 5 6 6 6 6 5 4 4 4 4 5 5 5 5 4 3
12 12 12 12 11 10 10 11 11 12 13 13 13 12 13 13 13 11 10 8 7 6 5 5 6 6 7 9 10 11 11 11 11 11 11 12 13 13 14 15 16 17 18 18 18 18 18 16 13 10 8 8 8 8 8 5 2 2 4 5 6 7 9 9 9 8 6 4 5 5 5 4 4 4 5 9 12 12 11 10 8 7 6 5 4 3 3 3 4 5 6 6 5 4 3 3 2 3 4 5 5 5 4
11 11 11 11 10 9 10 10 11 12 13 16 16 15 14 13 12 10 8 7 6 5 4 5 5 6 7 8 10 10 11 11 11 11 12 12 13 13 14 15 16 17 17 17 17 17 17 16 13 9 8 8 8 8 7 4 1 3 4 5 7 8 9 9 8 7 5 5 5 5 4 5 5 4 5 8 11 12 11 10 8 8 7 6 5 4 2 2 3 3 4 4 5 5 4 3 2 1 1 2 3 3 3
11 11 11 11 10 9 9 9 10 11 13 17 18 17 15 13 10 8 7 5 4 3 3 4 5 6 6 8 9 10 11 11 11 12 12 12 13 13 13 14 15 16 15 15 14 15 16 15 13 9 7 7 8 8 6 3 1 3 5 6 7 9 10 9 7 6 5 5 5 4 4 5 6 6 5 6 9 10 10 9 8 7 6 5 5 4 2 1 1 2 3 3 4 4 4 3 2 2 1 1 2 2 2
13 12 11 11 10 9 9 9 9 10 12 15 16 17 15 12 9 7 6 5 3 2 3 4 5 6 6 8 9 10 11 11 12 12 12 12 12 12 12 13 13 12 12 11 12 13 15 15 13 10 6 6 7 8 6 2 2 4 5 6 8 10 11 9 7 6 5 5 5 4 5 6 7 7 6 4 5 8 9 8 8 7 6 6 5 5 4 3 2 2 2 2 2 3 4 3 2 2 1 1 1 2 2
15 14 13 12 11 10 9 9 9 9 10 11 13 13 11 9 8 7 6 5 3 2 3 4 5 5 6 7 9 10 11 11 12 12 12 12 11 11 11 11 11 10 10 10 11 12 13 14 14 11 7 5 7 9 7 2 2 4 4 6 8 11 12 10 7 5 5 4 4 4 5 5 6 6 6 5 3 4 6 6 6 6 7 7 7 6 6 5 5 4 4 4 3 3 3 4 4 4 2 2 1 2 2
14 14 13 12 11 10 9 9 9 9 9 9 10 9 8 7 7 7 6 5 4 3 4 5 5 6 6 7 9 10 10 11 11 11 11 11 11 10 10 10 10 10 10 11 11 11 11 12 13 12 8 5 7 9 8 3 2 3 4 5 8 10 12 10 7 5 5 3 3 4 4 4 4 4 4 4 3 1 4 5 4 3 5 6 6 6 6 6 5 5 5 4 4 3 2 2 4 5 4 2 2 2 3
13 13 12 11 11 10 9 9 9 9 9 9 9 8 7 7 7 7 7 6 5 4 4 5 5 6 6 7 8 9 10 10 10 10 10 10 10 9 9 8 8 9 9 10 10 10 9 10 11 11 9 6 6 7 7 3 2 3 3 4 7 9 11 10 8 5 5 3 3 3 3 3 3 2 2 2 2 1 3 5 5 4 3 3 3 4 5 4 4 3 2 2 2 1 1 1 1 2 3 3 2 2 3
13 12 11 11 10 10 10 10 10 10 10 10 10 9 9 8 8 8 8 7 6 5 5 5 6 6 6 7 8 9 10 9 9 9 9 9 9 8 8 8 7 7 8 8 8 8 8 8 9 10 9 5 4 5 6 3 2 2 2 4 6 8 11 10 8 6 5 3 2 2 3 3 2 2 2 1 1 1 1 4 5 4 3 2 2 1 3 3 2 1 1 2 2 2 1 1 1 1 2 3 2 2 2
13 12 11 11 10 10 10 10 10 10 11 11 11 10 10 9 9 9 9 8 6 5 5 5 6 6 6 7 8 9 10 9 9 8 8 8 8 8 7 7 7 7 7 7 7 7 7 7 7 8 8 4 2 2 3 3 2 2 2 4 5 8 10 11 10 8 5 2 2 2 2 2 1 1 1 1 1 2 2 1 2 2 1 0 0 1 2 2 3 2 2 2 2 2 1 1 1 2 3 3 4 4 4
12 12 12 11 11 11 11 11 11 11 11 12 12 11 10 10 10 10 9 8 7 6 6 6 6 5 5 6 7 8 9 9 9 8 7 7 7 7 7 7 7 6 6 6 6 5 5 6 6 6 7 4 1 1 0 2 2 2 3 4 6 7 9 10 11 10 7 4 2 2 1 1 1 1 0 1 1 2 2 2 2 3 3 2 2 2 2 3 3 4 4 3 3 2 2 2 2 2 3 4 4 5 5
12 12 11 11 11 11 11 11 11 11 11 12 12 11 10 10 10 10 10 9 8 7 6 6 5 5 5 5 6 7 9 9 9 8 7 7 6 6 6 6 6 6 6 5 5 5 5 5 5 6 7 5 2 3 3 4 4 4 4 5 6 7 8 9 10 11 9 5 3 2 1 1 1 2 1 2 2 2 2 2 3 4 4 4 4 4 4 4 5 5 6 6 5 4 3 2 3 3 3 4 4 5 5
12 12 11 11 11 11 11 11 11 11 11 11 11 11 10 10 10 10 10 10 8 7 6 5 5 5 5 5 6 7 7 8 8 8 7 6 6 6 6 5 5 5 5 5 4 4 4 4 5 6 6 4 2 3 5 6 5 5 5 5 6 7 8 8 9 10 10 6 4 3 2 1 2 2 0 2 2 2 2 1 2 2 3 3 4 4 3 3 4 5 6 7 6 5 3 2 2 3 3 4 5 5 6
12 12 11 10 10 10 10 10 10 11 11 11 11 11 11 10 9 9 10 10 10 8 6 5 4 5 5 5 6 6 6 7 7 7 6 5 5 5 5 5 5 5 4 4 4 3 3 4 4 5 4 1 2 4 5 6 6 5 5 5 6 7 7 8 8 9 9 7 6 6 4 3 3 3 2 2 2 2 1 1 1 2 2 3 4 4 3 2 3 4 5 6 6 5 4 3 2 3 4 4 5 5 6
12 12 11 10 9 8 8 9 9 10 10 10 11 11 11 11 11 11 12 12 11 8 6 4 3 3 5 6 6 6 5 5 6 6 5 4 3 3 4 5 5 5 5 4 4 3 3 3 3 4 3 2 4 5 6 7 6 5 5 6 6 7 7 7 8 8 8 8 7 6 6 5 4 3 2 2 1 1 2 2 1 2 3 4 5 5 4 3 3 4 5 6 6 5 4 3 3 4 4 5 5 6 7
13 12 11 10 9 8 8 8 9 9 10 10 10 10 10 10 11 13 14 13 10 7 4 1 0 1 3 5 6 5 3 3 4 4 4 3 2 1 2 3 5 5 5 5 5 4 4 3 3 4 4 5 6 6 6 7 7 6 6 6 6 7 7 7 7 7 7 8 7 6 6 5 4 3 3 3 3 2 2 3 2 2 4 6 7 6 5 5 6 6 6 6 6 5 5 5 4 5 5 6 7 7 7
15 13 10 9 9 9 8 8 9 9 10 10 10 10 9 9 9 10 12 10 8 5 3 0 1 2 4 5 4 2 1 0 1 3 4 4 3 2 1 1 3 4 5 6 5 5 5 5 3 4 5 6 6 6 6 7 8 7 6 6 6 7 7 7 7 7 7 7 7 7 6 4 3 3 3 4 5 4 2 2 1 1 4 7 8 7 6 7 8 8 8 7 6 6 6 6 5 6 6 7 8 8 8
13 11 10 9 9 9 9 9 9 10 10 10 10 10 9 9 8 8 9 7 7 5 4 3 4 6 6 5 4 3 3 3 1 2 3 4 5 4 3 2 1 2 4 5 6 6 6 5 3 3 5 6 6 5 6 7 8 8 8 7 7 7 7 7 7 7 6 6 6 6 6 5 3 2 3 4 4 4 3 3 3 4 5 7 8 7 7 7 8 9 9 8 8 7 6 6 5 6 6 7 8 8 9
10 10 9 9 9 9 9 9 10 10 10 11 11 10 10 9 9 9 8 7 6 6 5 6 7 8 8 7 5 4 4 4 3 3 4 4 5 5 5 3 1 0 2 4 5 6 4 3 3 4 5 6 6 6 6 8 9 9 9 8 8 8 8 8 7 7 6 6 6 6 6 5 4 2 3 3 3 4 4 5 5 6 6 6 7 6 6 6 7 8 9 9 8 7 6 5 5 5 6 7 7 8 8
10 10 9 9 9 8 8 8 9 9 10 11 11 11 11 10 10 9 7 6 5 5 5 6 6 7 7 7 6 4 3 3 2 2 4 5 6 6 6 4 2 1 1 2 3 2 1 3 5 6 6 6 6 6 7 8 9 9 10 9 9 8 8 8 8 7 7 6 6 6 5 5 4 3 3 2 2 4 5 6 6 6 6 6 6 5 4 4 6 7 9 9 9 7 5 4 4 5 5 6 7 7 8
11 10 9 8 7 7 6 6 6 7 8 10 11 11 11 10 9 7 6 5 5 5 5 4 4 4 5 5 4 3 1 1 1 2 6 7 7 7 7 6 5 3 2 1 1 0 1 5 7 8 8 7 7 7 7 8 9 9 10 9 9 9 8 8 8 8 7 7 6 6 6 5 5 4 4 2 2 3 5 7 7 7 6 5 6 5 5 3 4 6 7 8 8 7 5 4 4 5 6 6 7 7 7
10 10 9 8 7 6 5 4 3 4 5 8 10 11 10 8 6 5 6 6 6 5 5 4 4 3 3 3 3 1 0 1 2 4 7 9 8 8 8 8 8 8 6 4 3 2 4 6 8 8 8 7 6 6 7 8 8 9 9 9 9 8 8 8 8 8 7 7 7 7 6 6 5 5 4 3 2 3 5 7 8 8 6 5 5 6 6 5 5 5 6 6 6 6 6 6 6 6 6 6 6 7 7
11 10 10 9 8 7 8 5 2 2 4 6 8 10 10 9 8 9 9 8 6 5 5 4 3 2 3 2 2 2 2 3 4 7 10 10 8 7 7 8 9 9 8 5 4 4 6 7 7 8 7 6 5 6 6 7 7 8 8 8 8 8 8 8 8 8 8 8 7 7 7 7 6 6 5 4 3 2 4 6 8 9 7 6 6 7 8 9 8 8 7 7 6 7 7 7 7 7 6 6 6 6 6
12 11 10 9 8 8 9 9 6 3 3 5 8 10 11 11 12 13 11 9 7 6 5 4 4 4 4 4 4 4 5 6 7 10 12 12 9 7 6 7 9 9 9 7 5 6 7 7 7 6 6 6 6 6 7 7 8 7 7 7 7 7 7 8 8 8 8 8 8 8 8 8 7 7 6 6 5 3 3 5 7 8 8 7 6 7 9 11 11 10 9 8 8 8 9 9 9 9 8 6 6 5 6
13 11 10 9 9 9 10 10 8 6 4 5 8 10 12 12 12 13 12 11 10 10 8 8 8 7 7 8 8 8 8 8 9 10 13 12 11 8 7 7 8 9 10 8 7 7 7 7 6 6 6 6 6 7 8 8 8 8 7 7 6 6 6 7 7 7 7 7 7 8 8 8 8 8 8 7 7 6 5 4 6 7 8 8 7 6 7 9 10 10 10 10 10 10 10 11 11 10 9 8 7 6 6
13 12 11 10 10 10 11 10 9 8 6 6 8 11 13 12 11 10 11 11 11 12 11 10 10 9 9 9 9 10 10 10 10 12 13 13 12 10 9 7 8 9 10 9 8 8 8 8 8 7 6 7 7 7 8 9 9 8 7 7 6 6 6 6 6 5 5 6 6 7 7 8 8 9 9 9 8 8 7 7 6 7 7 8 7 7 7 8 9 9 10 11 11 11 11 11 11 10 10 10 9 8 7
14 13 12 12 12 12 12 10 9 9 7 6 8 11 13 11 8 6 6 7 9 11 12 12 10 9 9 9 9 10 12 12 13 14 14 14 13 13 12 10 9 9 11 10 8 7 8 9 8 8 7 7 8 9 10 11 11 10 8 7 6 6 6 5 5 4 4 5 5 6 7 7 8 8 9 9 9 9 9 9 9 8 8 8 7 8 8 8 9 10 10 11 12 12 11 11 11 11 10 10 10 10 9
14 13 13 14 14 14 13 10 9 8 7 6 7 10 12 10 7 3 2 2 4 7 9 9 9 9 9 10 10 11 12 14 15 16 16 13 12 14 15 13 12 11 12 11 9 9 9 9 8 7 6 6 8 9 11 12 13 12 10 8 7 6 5 5 4 4 4 4 5 6 6 7 8 8 9 9 9 10 10 11 11 11 10 9 8 8 9 9 9 10 11 11 12 12 12 12 11 11 10 10 10 10 10
15 14 13 12 14 16 14 10 8 7 7 5 5 6 8 9 8 6 3 1 0 1 2 3 4 6 8 9 9 10 11 13 14 15 16 14 12 12 15 16 15 15 15 14 12 11 11 10 9 8 6 6 7 9 11 13 14 15 13 11 9 7 6 6 5 5 5 5 5 6 6 7 8 8 9 9 10 10 11 11 12 12 12 11 10 9 9 9 9 10 10 11 11 12 12 12 12 11 11 10 10 11 11
13 13 13 10 12 15 13 10 7 7 7 6 5 4 5 7 8 9 8 6 3 1 1 2 4 6 8 8 7 7 9 10 12 13 14 14 13 12 13 15 17 17 16 14 13 12 11 11 10 9 8 7 7 7 10 13 15 16 16 14 12 10 8 8 7 7 7 7 7 7 7 8 8 9 9 10 10 11 11 12 12 13 13 13 13 11 10 10 10 10 10 11 11 12 12 12 12 12 12 11 11 11 12
10 12 12 7 8 11 11 9 7 7 8 8 8 7 6 6 7 9 10 10 9 8 7 7 7 7 6 6 7 7 8 9 10 12 12 13 13 13 13 14 16 17 16 14 12 12 12 12 12 11 10 8 6 6 8 11 14 16 17 17 15 13 11 10 9 9 9 8 8 8 8 8 8 9 9 10 10 11 12 12 12 13 13 14 13 13 12 12 12 12 12 12 12 12 12 13 13 13 13 12 12 13 13
10 11 12 9 6 6 7 8 8 8 9 10 10 9 9 8 7 8 9 10 10 11 12 11 11 10 9 8 8 8 8 7 8 10 11 12 12 13 13 14 15 16 15 14 14 13 13 14 14 13 12 9 6 5 7 10 14 16 17 17 17 15 14 12 11 11 10 10 9 9 8 8 8 8 9 9 10 11 12 13 13 14 14 14 14 14 13 13 13 13 13 13 13 13 13 13 13 13 13 14 14 14 14
10 12 12 11 10 9 9 10 11 11 11 10 10 9 9 9 9 9 9 9 10 10 10 10 9 9 10 10 10 9 8 7 7 8 9 10 11 11 12 11 12 13 14 13 13 13 13 14 14 14 13 11 8 7 7 10 13 15 16 16 16 16 15 14 13 12 11 10 10 9 9 8 8 8 9 9 10 11 12 13 14 14 15 15 15 15 15 14 14 14 14 14 14 14 14 14 14 14 14 14 15 15 15
10 11 12 13 13 12 13 13 14 13 12 11 10 9 9 9 10 10 10 10 10 10 10 10 10 10 10 11 11 11 10 8 8 8 8 9 10 10 10 9 8 8 9 9 10 10 11 12 12 13 13 13 13 12 12 13 14 14 14 14 14 15 16 15 14 13 12 11 10 10 9 9 8 8 9 10 10 11 11 12 13 14 15 15 16 16 16 15 15 15 15 15 15 15 15 15 15 15 15 15 15 15 16
10 10 11 12 13 14 14 14 14 14 13 12 11 10 9 9 10 11 11 11 11 10 10 11 11 11 11 12 13 13 12 11 10 10 10 9 9 10 10 9 7 7 6 7 8 9 10 11 11 12 13 14 15 16 16 16 16 15 14 12 12 13 15 16 16 15 14 13 12 11 10 10 9 9 10 11 12 11 11 11 12 13 14 15 16 16 16 16 16 17 17 16 16 16 16 16 16 16 15 16 16 16 16
10 10 11 12 12 13 14 14 13 13 13 12 13 12 11 10 10 11 11 11 11 11 11 11 12 12 13 13 14 14 14 13 12 12 11 11 11 10 10 10 9 9 9 9 9 10 11 12 12 12 13 13 14 15 16 17 17 17 16 15 15 14 15 17 18 19 18 16 15 14 13 12 11 11 12 13 13 12 11 11 11 12 13 15 16 16 17 17 17 18 18 18 18 18 18 18 17 17 17 16 16 16 16
10 10 10 11 12 13 13 13 13 13 13 13 13 13 12 11 10 10 11 11 11 11 11 12 12 13 14 15 15 16 15 14 14 14 13 13 13 13 13 13 13 13 13 12 12 13 13 14 14 14 14 14 15 15 15 15 16 17 17 17 18 17 18 18 20 21 21 20 19 17 15 14 14 13 13 13 14 13 12 11 11 11 12 14 15 16 17 18 18 18 18 19 19 19 19 19 18 18 18 17 17 17 17
10 10 10 10 11 13 13 12 12 12 13 14 14 13 12 11 11 11 11 12 13 13 13 12 13 14 15 15 16 16 16 16 15 15 15 15 15 15 15 15 15 15 15 15 14 14 15 15 16 16 15 15 15 16 17 16 15 15 16 17 18 19 19 19 20 20 21 21 20 19 17 16 15 15 15 14 14 13 13 12 11 11 12 13 14 15 16 17 18 19 19 20 20 20 20 20 20 19 19 19 18 18 17
10 10 10 10 11 12 12 12 12 11 12 13 14 14 13 13 12 11 11 12 14 15 15 14 14 14 15 15 15 16 16 16 16 16 16 16 16 16 15 15 15 15 15 15 14 14 14 15 16 16 15 15 15 16 17 16 15 15 16 17 18 19 20 20 20 19 19 19 19 19 18 17 16 15 15 15 15 14 13 13 12 12 12 13 14 15 16 17 18 19 20 20 20 20 20 20 20 20 20 20 19 19 18
10 10 10 11 12 12 11 11 11 11 11 12 13 14 15 15 15 13 13 14 15 16 15 15 15 14 14 13 13 14 15 15 15 14 14 14 14 15 15 14 14 14 15 14 14 14 14 15 16 16 15 15 15 16 16 16 16 16 16 17 18 19 20 20 20 20 19 18 18 18 18 18 17 16 15 15 15 15 14 13 13 12 12 12 13 14 16 17 18 19 20 20 21 21 21 21 20 20 20 20 20 20 19
9 10 10 11 12 12 11 10 10 10 10 10 12 13 15 16 17 16 16 17 17 16 15 15 14 13 13 12 13 13 14 14 14 14 13 13 13 13 13 14 14 14 15 14 14 14 14 15 15 15 15 16 16 17 16 16 16 16 17 17 18 19 20 20 21 21 20 19 19 18 18 18 18 18 17 17 16 16 15 14 13 13 12 12 13 14 15 16 18 19 19 20 21 21 22 21 21 20 20 20 20 20 20
9 10 10 11 12 12 11 10 10 9 10 10 11 12 14 16 17 18 18 19 19 18 17 17 15 14 12 12 13 14 15 15 15 14 14 13 13 13 13 13 14 14 14 15 15 15 15 15 16 16 16 17 18 18 18 18 17 17 18 18 18 19 19 20 20 20 20 20 20 19 19 19 19 19 19 19 19 19 17 16 15 14 13 13 13 14 15 16 17 18 19 20 21 22 22 22 21 21 20 20 20 20 20
10 10 11 11 12 11 10 10 9 9 9 10 11 12 13 15 16 17 18 19 19 19 19 19 18 17 14 14 14 16 16 16 16 15 14 15 15 15 14 14 15 15 15 15 15 15 16 16 16 17 18 18 19 20 20 20 19 19 20 20 20 20 19 19 20 19 19 20 20 20 19 19 20 21 22 23 23 22 21 20 18 16 15 14 13 14 14 15 16 17 18 19 20 21 21 22 21 21 20 20 20 20 20
11 11 11 11 11 10 10 9 9 9 9 10 11 12 13 13 13 14 15 17 17 17 17 17 17 17 17 16 16 17 17 17 16 15 15 15 15 16 16 17 17 17 17 17 17 17 17 18 18 19 19 20 20 21 21 22 22 21 21 21 21 21 20 20 19 19 18 18 19 19 20 20 21 22 23 24 24 24 23 22 21 19 18 16 15 14 14 14 15 16 16 17 18 19 20 20 20 20 20 20 20 20 20
12 11 11 10 10 10 9 9 9 9 9 10 11 11 11 10 10 11 12 14 14 14 14 13 14 15 16 16 17 17 17 17 16 15 14 14 15 16 16 17 18 19 18 18 18 18 18 18 19 19 19 20 20 21 22 22 22 22 21 21 20 20 19 18 17 16 16 16 17 18 19 19 20 21 21 22 22 21 21 20 20 19 19 18 17 16 15 14 14 15 16 16 16 16 16 16 17 18 18 18 19 19 20
12 12 11 10 9 9 9 9 9 8 9 10 10 10 8 7 8 9 11 13 14 14 13 13 14 14 15 15 16 17 17 15 14 14 13 13 14 15 16 16 16 16 16 15 14 15 15 15 16 16 17 17 18 19 20 20 19 19 18 18 17 17 16 15 14 13 12 13 14 15 17 18 18 18 18 18 17 17 17 16 16 17 17 17 17 16 15 14 13 14 15 15 14 13 12 12 13 14 15 16 17 18 18
14 13 12 11 9 8 7 8 8 8 8 9 10 10 8 7 8 10 12 13 13 13 13 13 14 14 13 13 13 14 14 13 13 12 13 13 12 12 12 12 12 12 12 12 12 12 12 12 12 13 14 15 15 16 16 16 15 15 15 14 14 14 14 13 12 11 11 12 13 15 16 16 16 15 15 15 15 15 15 15 15 15 15 15 15 15 15 13 13 14 15 15 14 13 12 12 12 13 14 15 16 17 18
15 14 14 12 11 9 8 8 8 8 9 10 11 11 10 10 10 11 12 11 11 11 11 11 12 12 11 10 10 9 8 9 10 11 10 11 11 9 8 8 9 10 10 11 12 12 12 11 11 11 12 12 11 11 12 12 12 12 12 13 13 14 14 14 14 14 14 15 15 15 15 14 14 14 14 14 14 15 15 14 14 14 14 14 14 15 15 15 14 14 14 14 14 14 14 15 15 16 17 17 17 17 17
15 15 15 14 13 13 12 11 10 10 10 10 11 11 11 10 10 10 9 8 8 8 8 9 9 8 8 8 8 8 7 6 7 9 10 9 9 8 8 9 9 10 10 10 11 11 11 11 11 10 10 9 8 9 9 9 9 9 10 10 11 12 13 12 12 12 12 11 11 10 9 9 10 11 12 13 14 14 13 13 12 12 12 13 13 13 13 13 13 14 14 15 15 15 15 16 17 17 18 18 18 18 18
14 15 15 15 14 14 13 13 13 12 12 12 12 12 11 8 7 6 5 4 3 3 4 6 7 7 6 7 7 8 8 8 8 9 10 10 9 9 9 9 9 9 9 8 8 9 10 10 10 10 8 7 7 7 7 6 6 6 6 7 7 7 7 6 6 6 5 5 5 7 8 8 8 9 9 10 10 10 10 9 9 10 10 10 10 10 12 13 14 15 16 15 15 14 14 15 16 17 18 18 19 19 19
14 14 15 15 14 14 14 14 14 13 13 12 13 13 12 9 7 6 5 4 3 4 4 5 6 7 7 7 6 6 6 7 7 8 9 10 11 11 10 9 9 9 8 7 7 7 7 8 10 10 8 6 4 4 3 3 3 3 3 4 3 3 3 3 3 4 5 6 8 9 10 10 9 9 9 9 9 9 8 8 9 8 8 7 8 12 15 16 16 16 16 15 15 14 13 14 15 15 16 17 17 18 19
13 14 14 15 15 14 14 14 14 13 13 12 13 14 14 12 11 10 10 9 9 9 9 8 8 8 8 8 7 6 4 3 4 5 6 7 9 10 10 9 8 7 6 7 7 6 5 5 6 6 5 2 1 1 2 1 1 1 2 2 2 1 2 3 3 4 6 8 10 11 11 10 10 9 9 9 9 9 9 9 8 7 6 8 13 16 16 16 16 16 16 15 14 14 13 14 14 14 14 14 15 16 17
12 13 14 14 15 15 15 14 14 13 13 12 12 13 14 14 13 13 13 12 11 11 10 10 10 10 10 10 9 8 6 5 3 3 5 6 6 6 8 8 7 5 4 4 5 5 3 3 2 0 3 4 5 5 5 4 2 2 3 4 3 3 2 3 4 5 6 8 10 10 10 9 8 8 8 8 7 7 7 7 7 8 11 14 15 15 16 17 17 17 16 16 15 14 14 14 13 13 13 13 13 14 16
11 12 14 14 15 15 14 14 14 13 13 12 12 13 13 13 13 13 13 13 12 11 11 11 11 11 11 11 11 11 9 8 6 4 3 5 5 5 7 9 9 8 5 4 4 5 4 3 2 2 4 5 5 5 4 3 1 0 2 2 2 3 3 4 4 5 6 7 8 8 7 7 7 8 7 6 7 8 9 10 10 11 13 14 14 14 15 15 16 16 15 15 15 15 15 14 13 13 13 13 13 14 15
11 12 13 14 14 14 14 14 13 13 12 12 12 12 13 13 12 13 13 12 12 11 11 11 12 12 12 12 12 12 12 11 9 7 5 5 6 6 7 8 9 11 11 11 10 9 7 5 4 4 4 4 4 4 2 2 2 2 1 1 2 3 3 3 3 2 2 4 4 5 5 6 8 8 7 5 7 9 11 11 11 12 13 13 13 13 13 13 14 14 14 14 14 14 14 13 13 12 12 13 14 15 16
11 12 13 14 14 14 14 14 13 13 12 12 12 13 13 13 13 12 12 12 11 11 11 12 12 13 12 12 11 11 13 13 11 9 7 6 6 6 6 8 9 10 12 13 14 13 12 10 9 8 8 8 9 9 7 5 4 4 4 4 5 6 7 7 6 5 4 3 3 4 5 5 4 3 2 3 7 9 9 9 10 11 12 13 13 12 12 12 12 12 12 12 12 12 13 13 12 13 13 14 16 17 18
10 11 12 13 14 14 14 14 14 13 13 13 13 13 13 14 13 13 12 12 11 11 12 12 13 14 13 12 11 11 12 13 13 11 8 6 6 5 5 6 7 7 8 10 11 12 13 13 12 11 10 10 12 13 12 10 8 6 6 6 6 7 8 7 7 7 6 6 6 6 7 8 8 6 4 3 5 7 8 9 9 10 11 12 11 11 11 11 11 11 11 11 11 12 13 14 14 14 15 16 17 18 19
10 11 11 12 13 13 13 13 13 13 13 13 13 13 13 13 13 13 13 12 12 12 13 13 14 14 14 14 13 12 12 13 14 12 9 8 7 7 7 6 5 4 5 6 7 7 8 9 10 10 11 11 12 12 13 13 11 9 7 5 5 5 6 6 5 5 5 5 6 8 9 10 11 11 9 6 7 8 9 10 10 10 11 11 11 11 11 11 11 12 12 12 12 13 14 15 16 17 17 17 18 19 20
Wind_Direction
148 145 145 148 150 150 150 149 147 146 144 142 140 139 137 136 139 141 137 130 120 108 97 88 87 91 97 98 96 95 94 95 95 95 95 97 99 102 105 110 114 115 112 105 100 96 94 93 93 89 48 6 16 36 70 126 137 135 133 119 102 88 63 20 1 358 1 15 32 44 45 39 35 69 115 102 95 95 105 106 102 106 118 120 114 105 99 96 94 93 92 91 96 100 95 74 64 68 82 89 93 90 81
146 143 145 149 151 151 151 152 152 152 150 147 144 142 140 141 142 140 135 127 117 107 98 90 89 94 101 102 101 99 98 98 98 98 99 101 103 105 108 113 117 118 113 106 100 95 92 93 96 96 45 4 13 26 41 68 90 99 104 93 82 65 37 360 350 349 352 7 28 43 48 51 56 114 129 112 108 111 120 123 120 116 122 124 117 106 96 89 83 78 74 80 94 106 105 86 65 58 72 88 98 95 87
149 149 150 151 151 151 152 153 155 156 155 153 150 146 142 142 141 138 132 125 117 107 98 90 90 97 105 107 105 104 103 102 101 101 103 105 107 108 110 115 119 120 116 108 101 96 93 93 95 96 82 25 20 27 34 35 36 43 58 59 50 27 357 343 340 342 346 1 24 40 44 49 62 121 132 125 120 120 126 130 130 126 127 126 121 111 98 86 77 70 65 69 80 97 106 94 74 57 61 80 95 102 96
156 155 155 153 152 152 154 155 156 158 159 159 157 151 144 142 139 136 131 126 118 107 95 89 91 101 110 112 110 108 108 107 106 106 107 109 110 110 112 116 120 122 119 113 106 101 97 94 93 94 96 67 51 46 44 41 31 14 357 354 354 347 337 333 333 337 343 2 27 37 38 46 59 106 136 140 137 131 127 128 130 126 110 114 113 111 107 92 80 69 62 61 67 80 96 93 83 71 63 74 82 89 93
162 160 159 156 154 154 154 154 155 157 161 163 161 156 149 144 140 136 131 125 116 103 91 87 93 105 115 117 115 113 113 112 110 109 110 112 112 112 113 117 121 123 123 118 114 108 101 95 92 96 102 92 84 79 72 67 47 336 326 333 339 338 334 331 333 339 348 15 35 37 38 52 66 96 136 151 152 146 138 133 132 129 120 117 114 112 113 95 81 71 62 61 65 71 80 87 84 79 74 71 72 76 84
165 164 165 160 157 155 154 153 152 154 159 162 162 160 155 150 143 136 129 121 110 97 88 87 94 108 119 122 120 118 117 116 115 113 113 114 114 114 115 117 121 124 125 123 118 112 104 98 96 102 109 103 98 96 95 104 178 282 312 333 342 341 337 335 338 345 360 35 48 45 48 62 72 89 127 155 162 160 155 149 147 147 143 144 143 141 136 100 75 62 56 54 62 71 75 84 96 98 85 46 43 53 67
166 169 170 163 157 154 153 154 152 152 157 160 160 160 159 155 148 139 130 117 107 97 91 89 96 109 121 126 125 122 122 121 119 117 116 116 116 116 116 117 120 124 125 124 120 113 107 103 101 103 109 108 103 98 95 107 229 286 317 341 351 349 344 342 343 349 5 40 59 68 74 74 75 80 101 147 167 171 170 169 170 172 170 177 187 196 204 170 94 70 48 40 51 60 59 67 101 126 110 23 7 11 14
166 169 169 162 156 153 153 156 155 155 157 160 161 160 160 158 153 146 136 125 123 117 98 91 96 109 123 130 129 127 126 125 123 121 119 118 118 117 116 116 117 119 122 122 119 115 111 108 104 100 96 111 111 102 94 96 273 292 324 350 358 357 353 350 347 350 6 44 68 85 92 86 78 73 74 105 158 175 180 185 188 193 200 208 218 231 243 255 263 281 311 353 16 21 24 16 28 67 86 49 16 6 1
165 163 163 159 155 153 154 156 159 160 159 163 164 162 159 159 157 152 144 143 152 146 107 93 96 108 124 133 134 132 130 129 127 125 123 121 119 118 116 115 112 111 112 115 116 116 115 113 109 102 94 109 117 112 102 109 269 289 326 350 359 0 360 356 353 356 17 48 78 94 96 91 79 70 63 61 97 161 181 188 196 209 221 229 235 241 246 256 266 275 286 295 308 329 354 350 354 3 23 32 29 30 39
163 158 158 157 156 155 157 159 162 163 162 163 162 161 158 161 162 158 152 159 167 153 113 99 99 108 123 135 138 137 134 133 132 130 128 126 124 122 119 116 111 108 106 108 112 116 117 117 114 109 103 110 120 118 112 126 254 283 326 346 356 1 4 2 1 10 34 63 93 99 96 89 82 73 60 46 38 110 170 167 177 216 235 238 248 255 254 257 266 278 289 296 298 300 323 342 354 359 357 2 32 54 63
162 157 156 157 158 158 159 162 165 167 166 162 158 156 160 171 172 167 165 172 170 149 119 110 108 112 123 135 142 143 140 138 137 136 135 134 132 130 127 124 119 114 111 110 111 113 115 118 117 113 108 109 118 120 118 134 241 273 315 337 352 0 6 7 10 19 41 73 100 99 88 80 73 67 62 40 15 4 171 164 165 183 221 221 248 279 280 275 276 288 311 333 339 331 301 303 358 6 342 326 347 49 58
163 160 159 159 159 159 161 164 168 169 170 165 160 160 165 176 177 174 174 175 168 148 130 123 120 117 122 134 143 146 146 145 143 142 141 142 141 140 139 136 132 128 123 120 117 115 114 116 117 114 108 106 110 118 123 147 221 269 314 333 347 358 7 11 13 18 29 73 97 82 65 50 44 50 60 44 3 331 224 177 172 177 198 192 179 245 299 308 316 356 45 43 37 31 16 260 247 249 264 292 311 331 341
166 163 162 160 160 159 160 163 167 170 172 169 168 169 173 177 177 175 176 173 165 152 142 139 132 125 124 132 142 148 150 151 150 150 150 150 150 150 150 148 145 141 137 133 129 125 120 120 120 116 108 106 105 114 120 162 216 289 330 339 346 355 4 10 11 11 15 43 79 70 52 24 29 53 51 16 333 323 305 200 167 155 140 154 184 231 297 320 331 345 13 22 15 6 345 314 280 266 269 283 294 300 306
170 167 164 162 160 158 158 160 164 168 171 171 174 179 182 182 178 175 174 171 165 159 154 151 145 136 129 131 139 147 151 154 157 159 160 160 159 158 159 158 156 152 149 144 141 136 130 127 125 118 109 114 157 275 238 232 272 319 342 345 346 351 360 6 9 11 16 25 55 71 46 15 33 46 3 274 280 296 314 342 63 75 54 31 1 337 322 313 313 318 326 333 334 331 323 316 307 299 293 294 297 300 303
174 171 167 163 160 157 156 157 159 164 168 171 176 182 186 186 180 175 172 170 168 166 164 162 156 149 141 136 137 143 148 154 159 165 169 170 170 168 168 167 165 162 158 155 151 146 140 135 129 119 112 122 173 258 275 278 296 325 342 345 344 348 355 2 7 12 19 26 38 39 11 323 329 337 289 238 236 259 299 346 38 58 53 39 22 3 339 318 306 305 310 313 314 316 315 312 309 308 306 304 305 305 305
174 172 167 163 159 156 154 154 155 160 165 168 174 180 183 186 183 177 172 171 171 171 170 167 166 165 160 150 143 140 143 150 157 165 172 178 182 182 182 180 177 172 168 165 162 158 153 148 133 115 106 123 181 245 271 283 302 327 344 346 345 346 351 357 3 9 16 23 19 9 6 356 346 346 330 188 199 227 267 323 37 49 42 34 24 14 359 335 315 305 302 302 301 302 307 311 309 307 306 305 305 305 305
171 170 166 163 160 157 154 153 154 157 163 167 172 177 180 186 188 187 180 176 174 173 172 170 171 177 179 172 159 146 140 142 148 156 165 175 186 196 201 201 197 191 185 180 179 176 173 168 137 111 98 137 226 247 268 284 304 329 344 346 345 345 349 353 357 4 10 15 10 4 6 8 8 12 56 128 155 190 220 202 79 36 18 10 3 357 350 342 328 315 306 299 293 290 291 300 306 306 306 304 303 303 302
170 170 166 164 163 163 161 157 156 158 163 168 174 179 182 188 194 195 189 181 178 177 178 173 168 177 190 186 177 161 146 140 140 142 145 152 172 197 212 216 215 210 205 202 202 202 201 196 148 120 127 226 247 253 266 282 301 324 340 345 344 343 345 348 352 357 3 8 8 3 359 357 359 8 30 68 100 190 204 189 148 37 14 2 351 342 333 331 333 330 319 308 295 284 280 286 296 300 303 303 304 303 300
171 172 168 167 169 171 171 168 164 163 164 170 176 181 185 192 197 193 185 182 183 189 199 184 83 199 209 200 189 177 163 149 139 130 117 109 109 155 210 221 222 220 217 216 217 220 222 221 178 146 168 215 236 248 261 277 294 314 330 338 339 338 339 342 345 348 354 1 5 4 356 350 349 353 0 7 352 308 221 188 166 40 16 6 355 344 335 334 335 333 326 315 299 285 276 279 285 291 298 302 305 304 302
166 169 172 173 175 177 178 177 174 171 170 172 176 180 184 190 191 186 181 185 195 209 227 197 320 262 241 221 207 203 247 249 133 115 89 66 48 34 12 242 227 223 221 221 223 225 225 224 202 173 184 210 226 238 253 271 287 304 319 328 331 330 330 333 336 339 344 351 358 2 360 353 348 342 331 334 331 322 281 214 212 347 3 3 359 353 347 343 340 336 330 319 303 288 279 278 282 290 298 304 306 306 306
162 166 176 180 180 180 180 180 181 180 178 177 178 179 181 184 183 184 188 201 216 225 227 195 209 230 238 235 242 276 313 326 3 74 62 37 18 6 0 351 286 231 224 222 221 219 217 215 207 198 205 216 226 235 247 265 281 297 308 317 321 320 320 322 325 328 333 339 347 354 358 355 351 333 313 317 317 311 295 286 293 317 343 351 353 353 353 351 347 343 339 330 317 302 290 285 288 296 302 306 309 310 310
164 172 182 184 183 182 181 182 183 184 183 183 182 180 181 182 183 186 196 209 223 231 226 210 210 218 229 235 250 280 314 333 355 19 16 11 359 350 346 350 359 219 212 212 211 208 207 220 244 246 237 237 240 244 248 260 274 288 298 307 311 312 309 310 312 316 321 325 332 339 347 353 352 333 317 313 305 295 287 286 296 311 327 334 336 338 347 354 355 352 347 342 334 321 307 299 298 304 309 311 312 313 314
169 175 181 183 183 182 181 182 183 185 187 188 187 186 185 185 185 185 191 204 218 225 224 219 218 221 229 236 246 268 308 338 359 338 318 331 336 334 332 335 350 38 146 193 193 186 194 267 272 269 264 260 258 257 255 259 268 279 288 297 303 303 301 300 301 304 308 313 318 323 330 340 344 340 327 321 291 278 283 282 289 301 312 314 312 313 324 346 356 355 351 348 344 338 329 318 314 316 317 316 315 314 315
169 172 174 174 174 173 173 171 170 176 187 192 192 191 192 191 187 184 188 198 201 201 201 204 209 217 224 230 236 248 295 1 151 231 269 290 305 313 319 322 327 333 348 4 43 34 272 266 270 275 278 276 273 268 265 266 270 276 284 291 296 295 293 291 292 294 298 303 306 310 314 322 330 333 329 326 289 266 274 281 287 291 294 296 297 296 297 316 341 349 347 346 344 342 337 330 328 327 325 319 315 314 315
168 170 169 166 163 157 146 140 145 161 176 191 194 194 194 191 190 195 205 207 197 183 177 179 183 185 189 191 189 187 151 116 173 219 246 262 277 293 307 315 318 321 328 340 341 303 269 265 271 279 285 286 284 281 278 280 283 287 291 294 294 290 286 285 285 287 290 294 298 301 303 308 314 320 322 321 305 269 262 272 279 282 282 287 294 296 293 297 312 327 333 333 333 329 324 319 319 321 321 319 315 314 313
170 173 168 163 160 152 137 145 170 187 162 182 188 189 187 179 189 207 212 207 195 178 172 174 181 186 180 165 162 179 196 184 196 219 234 241 248 263 287 302 307 310 315 320 312 289 275 273 277 285 291 297 299 298 294 299 303 308 310 306 299 290 284 281 281 283 286 289 292 295 297 299 302 304 308 306 301 276 249 257 267 274 275 280 291 299 300 295 296 303 309 314 315 313 309 306 303 304 305 307 309 310 310
174 174 168 165 165 158 146 156 173 192 159 167 177 181 180 176 189 201 201 192 178 169 180 186 195 200 190 188 199 215 220 207 201 209 221 225 224 227 248 276 291 298 302 303 296 288 285 284 288 294 300 306 310 310 307 312 320 328 331 325 312 298 287 283 281 283 286 288 291 293 295 296 297 297 297 297 297 291 260 247 258 266 269 276 284 294 298 292 289 290 293 297 302 304 302 297 292 289 286 288 292 298 301
178 174 169 170 172 166 153 157 163 166 162 169 175 178 179 184 191 193 190 183 175 173 187 198 203 203 198 196 201 214 227 226 217 213 217 218 213 209 219 246 270 283 289 289 287 287 290 294 299 304 307 311 315 314 310 314 323 334 341 338 327 312 299 292 289 290 292 295 297 297 298 297 296 295 294 293 293 290 281 266 260 261 264 270 278 285 287 284 283 283 284 289 294 298 300 295 287 280 275 274 276 282 287
180 176 174 179 178 168 155 156 159 163 170 172 176 179 181 191 194 191 191 194 189 184 187 196 204 209 210 207 206 215 232 239 237 230 224 220 212 203 200 218 243 261 272 276 278 282 290 299 306 311 311 314 315 311 307 310 317 327 337 340 335 325 315 309 306 306 306 305 304 303 300 297 294 292 291 290 289 287 284 282 277 270 265 269 274 280 279 276 275 276 279 285 289 293 295 292 285 278 273 271 271 273 276
179 178 182 189 184 170 158 156 163 170 172 166 171 179 185 193 190 182 189 202 199 190 185 190 200 213 223 227 224 225 236 245 249 246 238 227 216 206 199 199 215 237 251 259 263 267 274 286 295 301 305 308 308 306 303 304 308 315 322 328 329 327 323 320 320 320 318 313 308 303 298 294 289 286 284 284 285 285 283 283 283 282 279 275 274 275 276 275 272 273 277 284 287 287 288 286 282 280 278 276 274 273 273
182 185 191 189 181 170 159 157 168 180 178 165 164 175 187 193 187 161 149 174 181 179 178 185 197 214 228 235 237 238 242 248 254 255 252 243 226 211 205 199 204 219 232 236 236 237 242 254 266 276 283 290 293 295 297 300 304 307 310 312 313 314 314 314 314 313 311 308 303 299 294 290 285 281 278 276 276 278 279 279 281 284 285 282 278 275 275 276 277 278 280 284 284 284 284 282 280 278 279 279 278 277 274
186 192 200 186 168 160 158 159 172 187 187 175 166 173 186 195 195 185 173 181 105 122 166 192 226 243 250 249 247 245 246 250 253 256 256 256 245 224 210 204 205 211 220 224 225 227 232 236 242 248 251 256 268 280 289 295 300 303 305 304 302 300 299 297 296 295 295 297 298 297 294 290 285 280 276 272 269 269 271 273 275 278 281 282 281 278 278 279 281 282 283 283 282 282 282 281 279 277 278 278 282 284 280
190 194 199 179 154 149 156 164 175 189 198 202 204 201 199 203 205 203 197 191 187 205 287 278 269 270 273 270 262 252 249 249 250 251 252 253 252 241 221 211 210 212 216 220 225 232 238 241 245 248 248 240 243 262 280 289 295 299 302 302 300 297 292 288 285 284 286 289 294 297 298 294 290 284 278 272 268 266 265 266 268 271 275 279 281 282 283 284 284 283 283 282 283 284 283 281 280 279 278 279 279 279 279
204 205 206 189 150 144 158 173 187 201 212 224 231 235 231 219 213 212 208 203 197 193 197 207 216 226 241 255 261 257 251 249 249 249 249 248 249 249 241 226 217 215 216 220 229 238 244 247 251 255 256 244 236 249 273 282 288 294 298 300 300 297 291 285 281 279 279 283 290 297 302 303 300 295 288 280 274 270 266 264 264 266 268 272 274 278 284 286 284 283 283 283 284 284 284 283 282 281 280 279 276 274 273
212 215 217 218 201 180 186 199 210 218 223 231 237 240 239 232 222 215 213 213 214 214 214 215 212 208 210 223 240 251 253 253 253 253 251 248 248 250 253 243 231 223 223 227 235 242 247 250 252 254 255 249 238 241 265 276 282 287 293 296 298 296 292 287 281 277 275 278 285 294 303 309 313 312 307 298 290 281 274 269 266 265 266 268 270 272 277 280 282 283 285 285 285 284 284 284 283 281 279 278 277 277 276
214 216 220 223 224 225 230 234 235 234 233 234 237 238 238 236 230 223 219 219 222 225 226 226 219 211 210 219 233 247 258 264 265 261 256 251 250 252 257 255 245 235 233 236 241 245 249 250 252 252 252 250 242 236 245 260 272 281 288 293 296 296 294 290 284 278 274 274 280 289 300 311 320 325 326 321 311 299 288 280 273 269 267 267 268 269 271 272 275 279 282 284 284 283 283 284 284 282 279 278 278 278 278
223 223 223 224 226 230 236 243 247 248 245 243 242 240 238 237 234 229 226 224 225 228 230 230 226 221 218 223 232 242 252 260 264 263 262 259 256 255 256 256 251 243 239 239 242 245 249 252 254 254 252 250 247 243 241 247 256 267 277 286 292 294 294 291 288 282 277 274 276 283 293 304 315 326 333 333 326 315 303 292 283 276 271 268 268 268 268 269 269 271 274 277 278 279 281 282 283 282 280 280 279 280 280
236 234 233 231 231 232 235 240 247 252 253 252 250 247 244 242 238 235 231 229 228 229 231 232 233 232 231 232 235 240 245 249 254 257 261 264 263 260 256 253 247 240 234 232 236 241 247 255 261 263 262 259 256 253 252 252 252 253 259 267 276 282 285 286 286 285 282 279 277 279 285 292 301 314 326 332 331 324 313 301 291 283 277 272 269 268 268 268 268 268 269 269 270 272 275 278 280 281 281 281 281 281 282
240 240 242 240 238 236 235 237 241 246 250 250 252 253 252 249 246 243 240 236 233 232 233 236 239 242 243 243 243 243 244 245 247 250 255 257 258 257 255 252 248 244 241 240 242 246 251 260 268 274 276 274 270 266 263 260 257 254 251 253 258 263 269 276 282 287 289 288 285 283 283 285 290 299 313 326 331 329 319 307 297 288 282 277 273 271 269 268 268 268 268 268 267 268 272 275 277 279 280 280 281 282 283
235 235 238 243 244 243 241 238 238 240 242 243 248 253 257 256 253 252 253 250 245 241 239 242 246 248 249 249 249 247 246 245 245 246 249 251 251 251 251 251 251 251 251 250 251 254 259 265 272 278 281 284 284 282 278 273 267 262 258 258 260 262 265 272 280 287 293 294 293 289 286 285 285 289 300 316 328 332 327 316 303 292 285 280 277 274 271 270 269 268 268 268 268 268 270 272 273 275 276 278 279 281 283
228 228 229 235 242 247 248 245 243 240 238 238 240 245 252 252 250 250 257 258 255 250 246 247 250 251 251 251 251 250 249 246 244 244 245 247 248 249 250 251 252 252 252 252 253 256 262 268 272 275 278 284 289 292 292 288 282 274 271 271 272 274 276 279 284 288 292 294 293 291 288 284 282 284 292 306 319 329 331 325 313 300 289 283 278 275 273 271 270 269 268 268 268 268 268 269 270 271 273 274 276 279 282
224 223 221 225 234 243 248 250 249 245 240 236 234 234 236 235 233 236 244 249 248 245 243 247 250 251 250 250 251 252 252 250 248 247 248 249 250 251 251 251 251 251 252 252 254 259 266 270 272 272 275 282 288 292 295 296 293 287 282 281 282 285 287 288 290 292 293 293 291 289 287 284 282 283 289 300 311 321 328 329 323 311 299 288 281 277 274 273 271 269 268 268 268 268 268 269 269 270 271 273 274 277 280
224 221 218 219 227 235 241 245 247 247 244 239 232 228 226 224 224 226 231 235 236 234 234 239 243 245 247 249 252 255 257 258 259 261 263 263 262 260 258 256 254 254 254 254 257 262 267 270 272 274 278 282 286 289 293 296 296 293 290 288 288 290 291 293 295 296 296 295 292 289 285 282 281 283 289 298 306 314 322 326 325 319 309 297 288 282 278 275 273 272 270 269 269 269 269 269 270 271 272 273 274 276 279
223 221 218 219 224 230 233 235 239 241 242 239 233 228 224 224 223 224 227 231 233 234 235 236 237 237 240 247 254 259 263 267 270 274 278 280 278 274 270 265 261 259 257 257 258 261 265 269 273 277 280 282 284 287 290 292 293 293 292 292 292 293 294 296 297 298 299 299 297 292 286 281 279 282 288 296 303 309 315 319 321 320 315 307 298 290 284 280 277 275 274 272 271 270 269 269 270 271 272 273 275 276 278
218 217 219 221 226 229 230 231 232 232 233 233 230 227 228 228 228 228 230 232 236 240 243 245 245 244 243 248 254 260 264 268 271 274 277 279 280 279 277 273 269 266 263 262 261 263 265 270 275 279 281 283 286 288 289 290 290 290 291 292 293 295 296 298 299 300 301 300 299 295 289 283 280 281 286 293 299 305 308 311 314 315 316 312 306 298 291 286 282 280 278 276 274 271 269 268 268 268 270 272 274 275 276
212 211 216 222 227 230 232 231 229 226 224 224 224 226 228 232 234 234 235 236 238 242 246 250 253 255 256 255 256 260 264 267 269 271 272 273 274 276 278 279 279 277 274 272 271 271 272 276 280 283 284 286 288 290 291 291 291 291 291 293 295 297 297 298 299 300 301 300 298 296 292 287 285 285 288 292 296 300 303 304 306 308 310 311 309 303 296 290 285 283 281 278 276 273 270 268 267 267 268 270 272 274 276
212 209 212 220 225 228 231 231 228 224 220 218 219 222 225 230 234 237 239 240 242 244 248 252 254 256 257 257 258 260 264 267 270 272 272 272 272 273 275 278 281 282 281 281 280 280 281 284 287 288 289 290 291 292 293 293 294 294 295 296 297 298 298 298 299 299 299 299 297 296 294 292 290 290 292 293 296 298 300 300 301 302 304 306 307 305 299 292 288 285 282 279 277 273 270 268 267 266 267 270 272 275 277
212 208 208 218 223 223 225 227 226 223 220 217 215 215 218 223 229 233 236 238 239 240 242 246 249 251 252 254 256 258 262 266 269 272 272 271 271 271 273 275 277 279 280 282 282 283 284 287 289 290 291 292 292 293 293 293 293 294 294 295 295 295 295 296 297 297 297 296 295 294 294 294 295 295 296 296 297 298 299 301 301 301 302 303 304 304 301 297 294 292 289 285 280 275 271 269 268 268 269 271 273 275 276
207 203 203 213 220 221 221 221 221 220 218 214 207 201 201 210 218 223 227 230 233 234 234 237 240 243 248 251 254 257 260 263 267 269 270 269 269 270 273 274 276 278 279 281 282 283 284 286 289 291 292 293 294 294 293 291 290 288 288 288 288 288 289 290 290 290 287 284 284 285 288 291 294 297 298 298 299 300 300 301 301 301 301 302 304 305 304 303 305 306 305 299 291 283 274 268 265 265 267 269 270 272 273
205 200 198 202 208 213 216 217 215 212 211 209 201 192 187 196 209 219 225 230 233 234 235 237 239 241 243 248 253 257 261 264 266 268 268 268 270 274 278 281 283 285 287 286 287 289 291 292 294 295 297 297 296 294 290 285 281 279 277 275 274 275 276 275 274 270 266 265 267 273 278 283 287 290 292 293 293 294 295 296 297 298 301 305 309 312 315 317 320 323 321 315 305 291 274 262 255 253 256 260 264 266 269
209 204 200 198 196 198 203 209 210 206 203 204 201 194 189 197 209 219 226 233 238 239 237 234 236 239 240 243 245 247 252 260 265 266 265 268 271 275 282 284 283 283 285 288 291 293 296 296 298 301 305 304 300 291 282 276 272 269 267 264 262 261 261 261 261 260 261 263 267 272 278 282 284 284 283 283 283 284 287 290 294 300 306 313 319 325 329 330 329 324 317 306 295 282 267 255 249 247 250 255 260 264 268
214 211 209 206 202 200 202 205 206 204 201 200 197 194 192 199 210 221 230 237 241 239 233 226 223 225 230 232 231 226 215 225 244 253 254 261 266 266 265 267 271 274 277 282 285 287 289 291 297 304 310 307 297 284 275 269 266 264 262 259 258 259 260 262 264 265 267 271 277 285 294 299 298 294 288 285 285 286 288 292 299 307 316 323 329 330 327 319 309 299 290 283 280 275 266 257 251 249 252 258 264 269 272
221 218 218 217 213 209 208 208 209 209 206 200 193 188 187 193 207 218 225 233 236 229 215 213 208 205 210 220 224 219 209 210 223 240 248 251 253 255 255 257 261 269 277 284 285 281 279 286 296 305 308 302 289 276 267 261 259 259 260 261 262 265 268 272 278 284 288 300 315 325 329 329 324 316 307 302 302 303 305 308 313 320 328 334 326 309 291 279 274 273 273 275 277 276 270 262 257 256 259 265 270 274 275
225 222 222 222 221 218 214 213 215 216 215 209 198 187 179 177 182 185 175 170 173 177 179 192 204 208 207 211 213 214 218 220 231 245 252 253 251 250 251 252 255 263 272 274 279 282 280 288 295 300 303 297 280 260 245 245 252 256 256 261 268 277 287 306 321 330 333 336 337 337 339 339 336 330 323 320 322 327 331 332 333 338 342 329 289 267 260 259 260 263 265 268 269 270 267 262 260 260 263 266 268 270 270
227 225 224 224 224 223 221 220 220 221 220 216 206 194 184 181 180 180 178 180 185 186 185 189 196 202 208 210 205 199 207 227 253 266 267 263 257 252 250 251 252 254 258 256 252 256 278 292 298 300 300 295 178 137 113 74 28 295 278 297 303 307 323 327 324 323 328 332 333 334 335 336 335 329 320 315 318 326 331 331 330 327 308 269 254 250 250 252 254 256 257 258 259 260 260 260 260 260 261 261 262 264 265
225 224 223 224 224 225 226 226 225 223 223 219 211 201 192 190 189 189 190 194 197 197 195 199 202 203 201 203 201 195 188 186 206 253 271 271 262 249 242 240 239 239 243 242 233 234 261 277 279 122 92 86 83 78 70 60 43 347 332 349 343 323 315 314 304 301 312 319 322 322 320 319 318 312 300 291 288 289 287 282 273 260 249 243 242 244 246 247 249 250 252 253 254 254 255 256 258 260 261 263 265 268 269
221 221 221 222 223 224 226 226 224 223 222 220 215 207 201 200 199 199 200 202 205 205 206 209 211 212 210 206 202 196 188 178 174 184 227 244 238 226 224 228 227 225 230 236 235 237 248 233 216 154 120 107 94 84 80 85 101 354 8 5 331 302 300 308 307 308 316 317 318 317 312 315 318 315 306 287 263 248 241 236 231 229 230 235 240 244 245 246 247 247 249 251 251 251 250 250 252 256 263 269 275 278 279
218 218 219 220 221 222 223 223 222 220 220 219 216 213 209 208 206 205 206 209 210 212 214 217 218 220 219 216 211 204 195 186 180 180 191 213 222 225 231 237 241 240 237 236 238 243 251 249 255 259 242 206 187 180 182 192 192 188 196 242 252 257 267 275 278 291 321 330 336 339 339 347 348 345 333 293 255 243 240 236 230 227 230 235 240 243 245 245 244 244 245 247 248 249 248 246 247 252 261 271 278 282 282
216 216 217 218 218 219 219 219 219 218 217 217 216 215 213 213 212 212 214 215 217 218 219 220 222 225 225 223 218 211 204 198 193 191 192 203 218 236 251 258 256 252 249 246 245 246 252 263 266 264 265 268 259 248 241 244 251 258 266 271 273 275 275 274 272 273 282 297 319 332 335 336 344 4 16 255 245 241 238 235 230 228 230 233 237 240 242 243 243 242 242 245 249 252 254 253 253 256 263 271 277 280 280
212 213 214 216 216 216 216 216 215 215 215 215 215 215 216 216 217 217 219 220 221 221 222 224 226 229 229 228 224 217 212 208 205 202 199 194 200 218 237 251 257 256 255 253 252 252 254 257 261 265 268 272 276 274 268 262 261 266 276 286 293 297 299 297 293 291 290 295 295 291 283 269 249 231 215 226 237 237 234 230 228 229 231 235 238 240 242 243 246 248 248 251 255 260 263 265 265 266 268 272 275 277 278
206 209 211 213 214 214 213 213 214 214 215 216 216 216 217 217 218 218 220 221 221 222 223 226 228 230 231 230 228 225 220 215 211 208 203 195 191 194 199 204 213 227 238 243 245 249 256 262 265 266 265 265 267 273 278 277 276 276 279 290 310 326 335 340 338 332 326 310 289 271 259 253 247 240 237 238 241 240 236 233 232 233 236 241 246 250 253 257 261 264 266 266 266 268 270 272 274 274 274 274 275 276 277